Regional Weather Roundup
Issued by NWS

Home | Current Version | Previous Version | Text Only | Print | Product List | Glossary Off
Versions: 1 2 3 4 5 6 7 8 9 10 11 12 13 14 15 16 17 18 19 20 21 22 23 24 25 26 27 28 29 30 31 32 33 34 35 36 37 38 39 40 41 42 43 44 45 46 47 48 49 50

634
ASUS45 KSLC 121410
RWRUT

UTAH REGIONAL WEATHER ROUNDUP
NATIONAL WEATHER SERVICE SALT LAKE CITY UT
700 AM MST FRI FEB 12 2016

UTZ001>011-023>025-121500-

NORTHERN UTAH

CITY           SKY/WX    TMP DP  RH WIND       PRES   REMARKS
BRIGHAM CITY   CLOUDY    25  23  92 CALM      30.44S VSB 1/2
HILL AFB       PTCLDY    25  22  89 S3        30.40S FOG
LOGAN          FOG       20  20 100 CALM      30.42S VSB 1/4
OGDEN          FOG       25  25 100 CALM      30.41S VSB 1/2
PROVO AIRPORT  FOG       19  16  86 CALM      30.43R VSB 1/4
SALT LAKE CITY FOG       29  27  92 CALM      30.43S VSB 1/2
VERNAL         CLOUDY    15  11  83 CALM      30.44R FOG
WENDOVER       CLOUDY    28  25  86 CALM      30.43S
HEBER CITY     PTCLDY     9   5  85 CALM      30.39S
WEST JORDAN    CLOUDY    27  27 100 SW6       30.43S WCI  20

$$

UTZ012>022-026-027-121500-

SOUTHERN/CENTRAL UTAH

CITY           SKY/WX    TMP DP  RH WIND       PRES   REMARKS
BLANDING       PTCLDY    32  22  66 E3        30.49R
BRYCE CANYON   PTCLDY    19   9  65 W13       30.44R WCI   6
CEDAR CITY     PTCLDY    20  16  84 CALM      30.35F
DELTA          CLOUDY    12  11  92 CALM      30.42S VSB<1/4
HANKSVILLE     PTCLDY    27  27 100 CALM      30.46R
MILFORD        FOG        5   2  87 CALM      30.39S VSB 1/4
MOAB/CYNLANDS  PTCLDY    26  24  92 CALM      30.42R
PRICE          CLEAR     25  18  74 N5        30.41S WCI  19
ST GEORGE      MOSUNNY   37  23  56 S3        30.35R
KANAB          CLEAR     32  27  80 NE6       30.40R WCI  26

$$

REGIONAL REPORTS     COLORADO/ARIZONA

CITY           SKY/WX    TMP DP  RH WIND       PRES   REMARKS
CRAIG, CO      CLOUDY     2   0  91 CALM      30.43R
GRAND JUNCTION CLOUDY    25  21  85 E8        30.44R WCI  16
RIFLE          CLOUDY    17  11  77 CALM      30.47R
MONTROSE       CLOUDY    24  16  71 S7        30.47R WCI  16
CORTEZ         CLOUDY    19  15  84 E8        30.43R WCI   9
PAGE, AZ       CLEAR     34  28  79 CALM      30.39R
GRAND CANYON   PTCLDY    22  17  81 NE5       30.40R WCI  16
KINGMAN        PTCLDY    36  23  59 E6        30.25R WCI  31
FLAGSTAFF      PTCLDY    20  16  84 CALM      30.42R

$$

REGIONAL REPORTS    NEVADA/IDAHO/WYOMING

CITY           SKY/WX    TMP DP  RH WIND       PRES   REMARKS
LAS VEGAS, NV  CLEAR     48  21  34 SW5       30.21R
ELY            MOCLDY    17   9  70 S14       30.38R WCI   3
ELKO           CLOUDY     9   5  84 NE6       30.40R WCI  -1
POCATELLO, ID  CLOUDY    23  19  85 E6        30.36S WCI  16
BURLEY         PTCLDY    27  25  92 CALM      30.30S
EVANSTON, WY   CLOUDY    31  14  49 S6        30.37S WCI  25
ROCK SPRINGS   CLOUDY    30  17  58 W9        30.37R WCI  22

$$




USA.gov is the U.S. government's official web portal to all federal, state and local government web resources and services.